Tracking 33200 objects as of 17-Feb-2026
HD Live streaming from Space Station
objects crossing your sky now

WILDFIRE 2

Track WILDFIRE 2 now!
10-day predictions


NORAD ID: 57767
Int'l Code: 2023-133M
Perigee: 948.9 km
Apogee: 956.4 km
Inclination: 81.0 °
Period: 104.0 minutes
Semi major axis: 7323 km
RCS: Unknown
Launch date: September 2, 2023
Source: United States (US)
Launch site: AIR FORCE WESTERN TEST RANGE (AFWTR)
Your satellite tracking list
Your tracking list is empty




NASA's NSSDC Master Catalog

Two Line Element Set (TLE):
1 57767U 23133L   26048.14910211  .00000146  00000-0  11900-3 0  9998
2 57767  80.9962 122.6951 0005119   1.5823 358.5349 13.85183342124382
Source of the keplerian elements: AFSPC